WBANNO,USDM_WEEK,LONGITUDE,LATITUDE,SMVWC_5_CM_MEAN,SMANOM_5_CM_MEAN,SMPERC_5_CM_30COUNTS,SMPERC_5_CM_70COUNTS,SMVWC_10_CM_MEAN,SMANOM_10_CM_MEAN,SMPERC_10_CM_30COUNTS,SMPERC_10_CM_70COUNTS,SMVWC_20_CM_MEAN,SMANOM_20_CM_MEAN,SMPERC_20_CM_30COUNTS,SMPERC_20_CM_70COUNTS,SMVWC_50_CM_MEAN,SMANOM_50_CM_MEAN,SMPERC_50_CM_30COUNTS,SMPERC_50_CM_70COUNTS,SMVWC_100_CM_MEAN,SMANOM_100_CM_MEAN,SMPERC_100_CM_30COUNTS,SMPERC_100_CM_70COUNTS,SMVWC_TOP_CM_MEAN,SMANOM_TOP_CM_MEAN,SMPERC_TOP_CM_30COUNTS,SMPERC_TOP_CM_70COUNTS,SMVWC_COLUMN_CM_MEAN,SMANOM_COLUMN_CM_MEAN,SMPERC_COLUMN_CM_30COUNTS,SMPERC_COLUMN_CM_70COUNTS
03054,20100416,-102.77,33.96,,,,,,,,,,,,,,,,,,,,,,,,,,,,
03054,20100417,-102.77,33.96,,,,,,,,,,,,,,,,,,,,,,,,,,,,
03054,20100418,-102.77,33.96,,,,,,,,,,,,,,,,,,,,,,,,,,,,
03054,20100419,-102.77,33.96,,,,,,,,,,,,,,,,,,,,,,,,,,,,
03054,20100420,-102.77,33.96,,,,,,,,,,,,,,,,,,,,,,,,,,,,
03054,20100421,-102.77,33.96,,,,,,,,,,,,,,,,,,,,,,,,,,,,
03054,20100422,-102.77,33.96,0.286,2.43,0,1,0.235,2.05,0,1,0.232,0.89,0,0.968,0.23,1.17,0,1,0.133,0.11,0,0,0.261,2.47,0,1,0.223,1.3,0,1
03054,20100423,-102.77,33.96,0.281,2.37,0,1,0.232,1.99,0,1,0.235,0.95,0,1,0.23,1.19,0,1,0.133,0.12,0,0,0.257,2.4,0,1,0.222,1.3,0,1
03054,20100424,-102.77,33.96,0.275,2.3,0,1,0.228,1.9,0,1,0.236,0.98,0,1,0.23,1.22,0,1,0.134,0.13,0,0,0.252,2.31,0,1,0.221,1.29,0,1
03054,20100425,-102.77,33.96,0.271,2.25,0,1,0.224,1.84,0,1,0.236,1,0,1,0.231,1.25,0,1,0.135,0.15,0,0,0.248,2.24,0,1,0.219,1.28,0,1
03054,20100426,-102.77,33.96,0.266,2.19,0,1,0.221,1.77,0,1,0.235,0.99,0,1,0.231,1.28,0,1,0.136,0.17,0,0,0.243,2.15,0,1,0.218,1.26,0,1
03054,20100427,-102.77,33.96,0.261,2.12,0,1,0.218,1.69,0,1,0.233,0.97,0,1,0.231,1.31,0,1,0.137,0.19,0,0,0.239,2.07,0,1,0.216,1.24,0,1
03054,20100428,-102.77,33.96,0.256,2.05,0,1,0.214,1.61,0,1,0.231,0.95,0,1,0.231,1.35,0,1,0.137,0.2,0,0,0.235,1.99,0,1,0.214,1.21,0,1
03054,20100429,-102.77,33.96,0.252,1.98,0,1,0.211,1.54,0,1,0.229,0.92,0,1,0.231,1.38,0,1,0.138,0.21,0,0,0.231,1.91,0,1,0.212,1.19,0,1
03054,20100430,-102.77,33.96,0.247,1.9,0,1,0.208,1.47,0,1,0.227,0.88,0,1,0.231,1.41,0,1,0.138,0.22,0,0,0.227,1.82,0,1,0.21,1.15,0,1
03054,20100501,-102.77,33.96,0.242,1.81,0,1,0.205,1.39,0,1,0.226,0.85,0,1,0.231,1.45,0,1,0.138,0.23,0,0,0.223,1.74,0,1,0.208,1.12,0,1
03054,20100502,-102.77,33.96,0.236,1.71,0,1,0.201,1.3,0,1,0.224,0.81,0,1,0.232,1.49,0,1,0.139,0.24,0,0,0.218,1.63,0,1,0.206,1.07,0,1
03054,20100503,-102.77,33.96,0.23,1.61,0,1,0.197,1.21,0,1,0.221,0.76,0,1,0.231,1.52,0,1,0.139,0.25,0,0,0.213,1.53,0,1,0.204,1.01,0,1
03054,20100504,-102.77,33.96,0.225,1.52,0,1,0.194,1.14,0,1,0.219,0.72,0,1,0.231,1.55,0,1,0.139,0.26,0,0,0.209,1.45,0,1,0.202,0.96,0,1
03054,20100505,-102.77,33.96,0.22,1.43,0,1,0.19,1.06,0,1,0.217,0.69,0,1,0.231,1.58,0,1,0.139,0.28,0,0,0.205,1.35,0,1,0.199,0.9,0,1
03054,20100506,-102.77,33.96,0.214,1.33,0,1,0.187,0.98,0,1,0.215,0.65,0,1,0.23,1.61,0,1,0.14,0.29,0,0,0.2,1.26,0,1,0.197,0.84,0,1
03054,20100507,-102.77,33.96,0.208,1.23,0,1,0.183,0.9,0,1,0.213,0.61,0,1,0.23,1.64,0,1,0.14,0.3,0,0,0.196,1.16,0,1,0.195,0.79,0,1
03054,20100508,-102.77,33.96,0.202,1.12,0,1,0.18,0.83,0,1,0.211,0.58,0,0.952,0.23,1.67,0,1,0.14,0.32,0,0,0.191,1.07,0,1,0.193,0.73,0,1
03054,20100509,-102.77,33.96,0.196,1.02,0,1,0.177,0.76,0,1,0.209,0.55,0,0.81,0.229,1.71,0,1,0.14,0.33,0,0,0.186,0.97,0,1,0.19,0.68,0,1
03054,20100510,-102.77,33.96,0.19,0.92,0,0.994,0.174,0.69,0,1,0.207,0.52,0,0.667,0.229,1.74,0,1,0.14,0.34,0,0,0.182,0.89,0,1,0.188,0.64,0,1
03054,20100511,-102.77,33.96,0.184,0.81,0,0.917,0.172,0.63,0,1,0.205,0.48,0,0.524,0.229,1.77,0,1,0.14,0.35,0,0,0.178,0.81,0,0.994,0.186,0.59,0,1
03054,20100512,-102.77,33.96,0.178,0.71,0,0.786,0.17,0.57,0,1,0.203,0.44,0,0.381,0.229,1.81,0,1,0.14,0.36,0,0,0.174,0.72,0,0.946,0.184,0.55,0,1
03054,20100513,-102.77,33.96,0.172,0.61,0,0.643,0.167,0.51,0,0.994,0.202,0.4,0,0.238,0.228,1.85,0,1,0.14,0.38,0,0.06,0.17,0.64,0,0.827,0.182,0.5,0,0.982
03054,20100514,-102.77,33.96,0.166,0.51,0,0.5,0.165,0.45,0,0.929,0.199,0.36,0,0.095,0.228,1.88,0,1,0.141,0.39,0,0.155,0.166,0.56,0,0.685,0.18,0.46,0,0.875
03054,20100515,-102.77,33.96,0.161,0.42,0,0.357,0.163,0.39,0,0.798,0.197,0.33,0,0,0.227,1.91,0,1,0.141,0.41,0,0.298,0.162,0.49,0,0.542,0.178,0.42,0,0.744
03054,20100516,-102.77,33.96,0.162,0.42,0,0.333,0.16,0.34,0,0.655,0.195,0.29,0,0,0.227,1.93,0,1,0.141,0.43,0,0.44,0.161,0.46,0,0.452,0.177,0.4,0,0.744
03054,20100517,-102.77,33.96,0.166,0.44,0,0.339,0.159,0.31,0,0.512,0.194,0.26,0,0,0.226,1.95,0,1,0.142,0.44,0,0.583,0.163,0.46,0,0.452,0.177,0.4,0,0.744
03054,20100518,-102.77,33.96,0.171,0.48,0,0.417,0.158,0.29,0,0.393,0.192,0.24,0,0,0.226,1.96,0,1,0.142,0.45,0,0.726,0.165,0.47,0,0.458,0.178,0.41,0,0.744
03054,20100519,-102.77,33.96,0.177,0.52,0,0.548,0.158,0.27,0,0.339,0.191,0.23,0,0,0.225,1.98,0,1,0.142,0.47,0,0.869,0.167,0.48,0,0.506,0.179,0.41,0,0.744
03054,20100520,-102.77,33.96,0.182,0.56,0,0.69,0.159,0.27,0,0.28,0.19,0.22,0,0,0.225,1.99,0,1,0.142,0.48,0,0.952,0.17,0.5,0,0.625,0.18,0.42,0,0.762
03054,20100521,-102.77,33.96,0.188,0.61,0,0.833,0.159,0.27,0,0.292,0.19,0.21,0,0,0.224,1.99,0,1,0.142,0.48,0,1,0.173,0.53,0,0.732,0.181,0.44,0,0.869
03054,20100522,-102.77,33.96,0.193,0.66,0,0.97,0.161,0.3,0,0.351,0.19,0.2,0,0,0.224,2,0,1,0.142,0.48,0,1,0.177,0.56,0,0.78,0.182,0.46,0,1
03054,20100523,-102.77,33.96,0.192,0.64,0,0.929,0.162,0.32,0,0.429,0.19,0.2,0,0,0.224,2,0,1,0.141,0.48,0,1,0.177,0.56,0,0.738,0.182,0.46,0,1
03054,20100524,-102.77,33.96,0.188,0.59,0,0.786,0.163,0.33,0,0.464,0.19,0.19,0,0,0.225,2.02,0,1,0.141,0.48,0,1,0.175,0.52,0,0.595,0.181,0.45,0,1
03054,20100525,-102.77,33.96,0.182,0.52,0,0.643,0.163,0.33,0,0.446,0.189,0.18,0,0,0.225,2.02,0,1,0.141,0.48,0,1,0.172,0.47,0,0.452,0.18,0.43,0,0.964
03054,20100526,-102.77,33.96,0.175,0.44,0,0.5,0.161,0.31,0,0.357,0.188,0.16,0,0,0.224,2.01,0,1,0.141,0.49,0,1,0.168,0.41,0,0.31,0.178,0.4,0,0.821
03054,20100527,-102.77,33.96,0.169,0.37,0,0.357,0.16,0.29,0,0.28,0.186,0.15,0,0,0.224,1.99,0,1,0.141,0.49,0,1,0.164,0.35,0,0.167,0.176,0.37,0,0.679
03054,20100528,-102.77,33.96,0.164,0.31,0,0.214,0.158,0.26,0,0.19,0.185,0.13,0,0,0.223,1.96,0,1,0.141,0.51,0,1,0.161,0.3,0,0.06,0.174,0.34,0,0.536
03054,20100529,-102.77,33.96,0.16,0.26,0,0.077,0.157,0.24,0,0.119,0.184,0.12,0,0,0.222,1.93,0,1,0.142,0.52,0,1,0.159,0.26,0,0.012,0.173,0.32,0,0.393
03054,20100530,-102.77,33.96,0.157,0.22,0,0,0.156,0.21,0,0.042,0.182,0.1,0,0,0.221,1.88,0,1,0.142,0.53,0,1,0.157,0.22,0,0,0.172,0.29,0,0.25
03054,20100531,-102.77,33.96,0.156,0.2,0,0,0.154,0.19,0,0.006,0.181,0.09,0,0,0.219,1.81,0,1,0.142,0.54,0,1,0.155,0.19,0,0,0.17,0.27,0,0.107
03054,20100601,-102.77,33.96,0.154,0.17,0,0,0.153,0.16,0,0,0.179,0.08,0,0,0.218,1.75,0,1,0.142,0.54,0,1,0.153,0.16,0,0,0.169,0.25,0,0
03054,20100602,-102.77,33.96,0.152,0.15,0,0,0.152,0.14,0,0,0.178,0.07,0,0,0.216,1.68,0,1,0.141,0.55,0,1,0.152,0.13,0,0,0.168,0.24,0,0
03054,20100603,-102.77,33.96,0.151,0.14,0,0,0.151,0.13,0,0,0.177,0.06,0,0,0.214,1.62,0,1,0.141,0.56,0,1,0.151,0.12,0,0,0.167,0.22,0,0
03054,20100604,-102.77,33.96,0.149,0.11,0,0,0.15,0.11,0,0,0.177,0.05,0,0,0.212,1.56,0,1,0.141,0.57,0,1,0.15,0.09,0,0,0.166,0.2,0,0
03054,20100605,-102.77,33.96,0.146,0.07,0,0,0.149,0.08,0,0,0.176,0.04,0,0,0.21,1.51,0,1,0.141,0.58,0,1,0.148,0.06,0,0,0.164,0.18,0,0
03054,20100606,-102.77,33.96,0.142,0.03,0,0,0.148,0.06,0,0,0.175,0.03,0,0,0.207,1.46,0,1,0.141,0.59,0,1,0.145,0.03,0,0,0.163,0.16,0,0
03054,20100607,-102.77,33.96,0.138,-0.01,0,0,0.147,0.03,0,0,0.174,0.02,0,0,0.205,1.42,0,1,0.141,0.61,0,1,0.142,-0.01,0,0,0.161,0.13,0,0
03054,20100608,-102.77,33.96,0.134,-0.05,0,0,0.145,0,0,0,0.173,0.01,0,0,0.203,1.38,0,1,0.141,0.63,0,1,0.14,-0.04,0,0,0.159,0.1,0,0
03054,20100609,-102.77,33.96,0.131,-0.09,0,0,0.143,-0.03,0,0,0.172,0,0,0,0.201,1.35,0,1,0.14,0.64,0,1,0.137,-0.08,0,0,0.157,0.08,0,0
03054,20100610,-102.77,33.96,0.127,-0.13,0,0,0.141,-0.07,0,0,0.171,-0.01,0,0,0.199,1.3,0,1,0.14,0.66,0,1,0.134,-0.11,0,0,0.156,0.05,0,0
03054,20100611,-102.77,33.96,0.124,-0.17,0,0,0.139,-0.1,0,0,0.17,-0.01,0,0,0.197,1.26,0,1,0.14,0.68,0,1,0.132,-0.15,0,0,0.154,0.02,0,0
03054,20100612,-102.77,33.96,0.121,-0.2,0,0,0.137,-0.14,0,0,0.169,-0.01,0,0,0.195,1.21,0,1,0.14,0.69,0,1,0.129,-0.18,0,0,0.152,-0.01,0,0
03054,20100613,-102.77,33.96,0.118,-0.24,0.018,0,0.135,-0.18,0,0,0.168,-0.02,0,0,0.193,1.17,0,1,0.139,0.71,0,1,0.126,-0.22,0.036,0,0.151,-0.04,0,0
03054,20100614,-102.77,33.96,0.115,-0.27,0.095,0,0.133,-0.21,0.012,0,0.167,-0.02,0,0,0.192,1.12,0,1,0.139,0.72,0,1,0.124,-0.25,0.155,0,0.149,-0.07,0,0
03054,20100615,-102.77,33.96,0.113,-0.29,0.238,0,0.131,-0.25,0.101,0,0.167,-0.02,0.006,0,0.19,1.05,0,1,0.138,0.73,0,1,0.122,-0.27,0.298,0,0.148,-0.1,0.012,0
03054,20100616,-102.77,33.96,0.11,-0.32,0.381,0,0.128,-0.29,0.238,0,0.165,-0.03,0.071,0,0.188,1,0,1,0.138,0.74,0,1,0.119,-0.31,0.44,0,0.146,-0.13,0.077,0
03054,20100617,-102.77,33.96,0.109,-0.34,0.524,0,0.126,-0.32,0.375,0,0.164,-0.04,0.101,0,0.186,0.94,0,0.97,0.137,0.74,0,1,0.118,-0.33,0.583,0,0.145,-0.15,0.131,0
03054,20100618,-102.77,33.96,0.107,-0.36,0.667,0,0.125,-0.35,0.518,0,0.163,-0.05,0.149,0,0.185,0.89,0,0.97,0.136,0.74,0,1,0.116,-0.35,0.726,0,0.143,-0.18,0.208,0
03054,20100619,-102.77,33.96,0.108,-0.36,0.708,0,0.123,-0.38,0.661,0,0.162,-0.05,0.226,0,0.184,0.85,0,0.97,0.135,0.74,0,1,0.115,-0.36,0.863,0,0.142,-0.2,0.226,0
03054,20100620,-102.77,33.96,0.11,-0.34,0.69,0,0.123,-0.39,0.774,0,0.161,-0.06,0.298,0,0.183,0.82,0,0.964,0.135,0.74,0,1,0.116,-0.35,0.839,0,0.142,-0.2,0.226,0
03054,20100621,-102.77,33.96,0.112,-0.32,0.613,0,0.122,-0.4,0.899,0,0.16,-0.06,0.339,0,0.181,0.79,0,0.964,0.134,0.73,0,1,0.117,-0.34,0.756,0,0.142,-0.2,0.226,0
03054,20100622,-102.77,33.96,0.115,-0.3,0.47,0,0.123,-0.4,0.929,0,0.159,-0.07,0.411,0,0.181,0.78,0,0.964,0.133,0.72,0,1,0.119,-0.33,0.661,0,0.142,-0.2,0.214,0
03054,20100623,-102.77,33.96,0.117,-0.28,0.375,0,0.123,-0.39,0.917,0,0.159,-0.07,0.417,0,0.179,0.76,0,0.964,0.132,0.71,0,1,0.12,-0.31,0.601,0,0.142,-0.19,0.155,0
03054,20100624,-102.77,33.96,0.12,-0.26,0.232,0,0.124,-0.39,0.923,0,0.158,-0.07,0.494,0,0.179,0.76,0,0.994,0.131,0.7,0,1,0.122,-0.29,0.5,0,0.143,-0.18,0.101,0
03054,20100625,-102.77,33.96,0.124,-0.23,0.089,0,0.125,-0.38,0.923,0,0.158,-0.07,0.536,0,0.178,0.76,0,0.994,0.131,0.69,0,1,0.124,-0.26,0.357,0,0.143,-0.17,0.024,0
03054,20100626,-102.77,33.96,0.126,-0.22,0.048,0,0.126,-0.36,0.905,0,0.158,-0.07,0.494,0,0.177,0.75,0,0.994,0.13,0.68,0,1,0.126,-0.24,0.22,0,0.143,-0.15,0.006,0
03054,20100627,-102.77,33.96,0.127,-0.23,0.048,0,0.126,-0.36,0.935,0,0.158,-0.07,0.47,0,0.176,0.73,0,1,0.129,0.66,0,1,0.126,-0.24,0.256,0,0.143,-0.15,0.006,0
03054,20100628,-102.77,33.96,0.126,-0.24,0.089,0,0.126,-0.36,0.94,0,0.157,-0.07,0.452,0,0.176,0.72,0,1,0.128,0.65,0,1,0.126,-0.25,0.351,0,0.143,-0.15,0.006,0
03054,20100629,-102.77,33.96,0.126,-0.25,0.167,0,0.126,-0.36,0.964,0,0.157,-0.07,0.381,0,0.175,0.7,0,0.994,0.128,0.64,0,1,0.126,-0.25,0.446,0,0.142,-0.15,0.006,0
03054,20100630,-102.77,33.96,0.125,-0.26,0.262,0,0.126,-0.36,0.982,0,0.156,-0.07,0.345,0,0.174,0.69,0,0.994,0.127,0.62,0,1,0.125,-0.26,0.506,0,0.141,-0.16,0.042,0
03054,20100701,-102.77,33.96,0.124,-0.28,0.405,0,0.125,-0.37,0.982,0,0.156,-0.07,0.268,0,0.173,0.67,0,0.994,0.126,0.61,0,1,0.125,-0.28,0.607,0,0.141,-0.17,0.048,0
03054,20100702,-102.77,33.96,0.122,-0.3,0.548,0,0.125,-0.38,0.982,0,0.155,-0.06,0.19,0,0.172,0.65,0,0.994,0.125,0.6,0,1,0.123,-0.3,0.75,0,0.14,-0.19,0.113,0
03054,20100703,-102.77,33.96,0.118,-0.34,0.69,0,0.123,-0.4,1,0,0.154,-0.07,0.208,0,0.171,0.62,0,0.994,0.124,0.57,0,1,0.121,-0.33,0.893,0,0.138,-0.23,0.256,0
03054,20100704,-102.77,33.96,0.127,-0.26,0.732,0.083,0.123,-0.4,0.946,0,0.153,-0.07,0.286,0,0.17,0.6,0,0.994,0.124,0.56,0,1,0.125,-0.27,0.893,0.06,0.139,-0.19,0.298,0.036
03054,20100705,-102.77,33.96,0.144,-0.1,0.69,0.226,0.129,-0.3,0.804,0,0.152,-0.08,0.387,0,0.169,0.57,0,0.994,0.123,0.55,0,1,0.136,-0.13,0.762,0.202,0.143,-0.09,0.298,0.179
03054,20100706,-102.77,33.96,0.16,0.06,0.613,0.369,0.134,-0.2,0.661,0,0.152,-0.08,0.405,0,0.169,0.56,0,1,0.122,0.53,0,1,0.147,0.01,0.619,0.345,0.147,0.02,0.298,0.321
03054,20100707,-102.77,33.96,0.18,0.26,0.47,0.512,0.148,0.03,0.518,0.06,0.161,0,0.387,0.054,0.168,0.55,0,1,0.122,0.51,0,1,0.164,0.23,0.476,0.488,0.156,0.25,0.256,0.423
03054,20100708,-102.77,33.96,0.205,0.51,0.327,0.655,0.169,0.4,0.375,0.202,0.184,0.18,0.357,0.196,0.168,0.53,0,1,0.121,0.5,0,1,0.187,0.53,0.333,0.631,0.169,0.61,0.25,0.565
03054,20100709,-102.77,33.96,0.228,0.73,0.185,0.798,0.187,0.71,0.232,0.345,0.205,0.34,0.345,0.339,0.167,0.53,0,1,0.121,0.49,0,1,0.208,0.79,0.19,0.774,0.182,0.94,0.185,0.708
03054,20100710,-102.77,33.96,0.25,0.95,0.042,0.94,0.205,1,0.089,0.488,0.224,0.48,0.292,0.482,0.167,0.54,0,1,0.121,0.49,0,1,0.227,1.04,0.048,0.917,0.193,1.25,0.042,0.851
03054,20100711,-102.77,33.96,0.259,1.04,0,1,0.22,1.24,0,0.631,0.242,0.62,0.167,0.625,0.168,0.58,0,1,0.12,0.48,0,1,0.239,1.19,0,1,0.202,1.49,0,0.958
03054,20100712,-102.77,33.96,0.26,1.05,0,1,0.229,1.37,0,0.774,0.259,0.76,0.042,0.768,0.169,0.66,0,1,0.12,0.47,0,1,0.244,1.25,0,1,0.207,1.64,0,0.958
03054,20100713,-102.77,33.96,0.266,1.1,0,1,0.238,1.51,0,0.917,0.275,0.88,0.018,0.911,0.17,0.77,0,1,0.12,0.47,0,1,0.252,1.33,0,1,0.214,1.81,0,0.958
03054,20100714,-102.77,33.96,0.265,1.09,0,1,0.24,1.51,0,1,0.282,0.92,0,0.952,0.172,0.91,0,1,0.12,0.47,0,1,0.253,1.32,0,1,0.216,1.86,0,1
03054,20100715,-102.77,33.96,0.26,1.02,0,1,0.233,1.37,0,1,0.273,0.85,0,0.827,0.174,1.1,0,1,0.12,0.47,0,1,0.247,1.22,0,1,0.212,1.75,0,1
03054,20100716,-102.77,33.96,0.261,1.02,0,1,0.232,1.32,0,1,0.268,0.79,0,0.685,0.176,1.3,0,1,0.12,0.46,0,1,0.246,1.19,0,1,0.211,1.71,0,1
03054,20100717,-102.77,33.96,0.262,1.02,0,1,0.23,1.27,0,1,0.263,0.75,0,0.542,0.178,1.5,0,1,0.12,0.45,0,1,0.246,1.15,0,1,0.211,1.68,0,1
03054,20100718,-102.77,33.96,0.26,1,0,1,0.229,1.22,0,1,0.259,0.71,0,0.399,0.18,1.69,0,1,0.12,0.46,0,1,0.245,1.11,0,1,0.21,1.63,0,1
03054,20100719,-102.77,33.96,0.258,0.96,0,1,0.226,1.16,0,1,0.255,0.67,0,0.256,0.181,1.84,0,1,0.12,0.46,0,1,0.242,1.06,0,1,0.208,1.57,0,1
03054,20100720,-102.77,33.96,0.249,0.88,0,0.964,0.22,1.07,0,0.935,0.251,0.63,0,0.113,0.182,1.96,0.006,0.994,0.12,0.46,0,1,0.235,0.96,0,0.958,0.204,1.47,0,1
03054,20100721,-102.77,33.96,0.241,0.8,0,0.875,0.214,0.96,0,0.792,0.246,0.58,0,0.018,0.183,2.05,0.006,0.994,0.119,0.45,0,1,0.228,0.87,0,0.815,0.201,1.37,0,1
03054,20100722,-102.77,33.96,0.233,0.72,0,0.732,0.207,0.85,0,0.649,0.24,0.53,0,0,0.183,2.1,0.006,0.994,0.119,0.46,0,1,0.22,0.77,0,0.673,0.197,1.26,0,1
03054,20100723,-102.77,33.96,0.219,0.58,0,0.589,0.197,0.7,0,0.506,0.233,0.48,0,0,0.183,2.09,0.018,0.982,0.119,0.46,0,1,0.208,0.63,0,0.53,0.19,1.1,0,0.988
03054,20100724,-102.77,33.96,0.207,0.47,0,0.446,0.187,0.57,0,0.363,0.226,0.42,0,0,0.183,2.09,0.018,0.982,0.119,0.48,0,1,0.197,0.51,0,0.387,0.184,0.96,0,0.988
03054,20100725,-102.77,33.96,0.202,0.43,0,0.369,0.183,0.52,0,0.286,0.221,0.39,0,0,0.183,2.07,0.018,0.982,0.119,0.48,0,1,0.192,0.47,0,0.31,0.182,0.89,0,0.97
03054,20100726,-102.77,33.96,0.207,0.51,0,0.369,0.187,0.59,0,0.286,0.218,0.38,0,0,0.182,2.04,0.018,0.982,0.119,0.49,0,1,0.197,0.54,0,0.31,0.183,0.92,0,0.97
03054,20100727,-102.77,33.96,0.212,0.57,0,0.405,0.19,0.65,0,0.351,0.216,0.37,0,0,0.182,2.02,0.012,0.988,0.119,0.5,0,1,0.201,0.61,0,0.351,0.184,0.96,0,0.97
03054,20100728,-102.77,33.96,0.216,0.63,0,0.494,0.192,0.71,0,0.494,0.214,0.37,0,0,0.181,1.98,0.012,0.988,0.119,0.51,0,1,0.204,0.66,0,0.494,0.184,0.98,0,0.97
03054,20100729,-102.77,33.96,0.219,0.68,0,0.637,0.194,0.75,0,0.637,0.212,0.37,0,0,0.181,1.96,0.012,0.988,0.119,0.51,0,1,0.206,0.71,0,0.637,0.185,1,0,0.97
03054,20100730,-102.77,33.96,0.221,0.7,0,0.78,0.195,0.77,0,0.696,0.211,0.37,0,0,0.181,1.98,0,1,0.119,0.52,0,1,0.208,0.74,0,0.768,0.185,1.01,0,0.982
03054,20100731,-102.77,33.96,0.222,0.72,0,0.827,0.195,0.79,0,0.696,0.21,0.37,0,0,0.18,1.97,0.006,0.994,0.119,0.52,0,1,0.209,0.76,0,0.78,0.185,1.02,0,0.976
03054,20100801,-102.77,33.96,0.217,0.67,0,0.762,0.191,0.73,0,0.631,0.206,0.36,0,0,0.179,1.94,0.024,0.976,0.119,0.53,0,1,0.204,0.69,0,0.714,0.183,0.95,0,0.976
03054,20100802,-102.77,33.96,0.203,0.51,0,0.619,0.179,0.56,0,0.488,0.2,0.31,0,0,0.179,1.94,0.024,0.976,0.119,0.53,0,1,0.191,0.53,0,0.571,0.176,0.8,0,0.881
03054,20100803,-102.77,33.96,0.191,0.38,0,0.476,0.17,0.41,0,0.345,0.194,0.27,0,0,0.178,1.91,0.024,0.976,0.119,0.54,0,1,0.18,0.38,0,0.429,0.17,0.66,0,0.738
03054,20100804,-102.77,33.96,0.18,0.25,0,0.333,0.162,0.28,0,0.202,0.188,0.23,0,0,0.176,1.85,0.024,0.976,0.118,0.55,0,1,0.171,0.25,0,0.286,0.165,0.54,0,0.595
03054,20100805,-102.77,33.96,0.17,0.14,0,0.19,0.155,0.18,0,0.06,0.182,0.19,0,0,0.175,1.77,0.024,0.976,0.118,0.55,0,1,0.162,0.15,0,0.143,0.16,0.43,0,0.452
03054,20100806,-102.77,33.96,0.164,0.08,0,0.071,0.152,0.13,0,0.024,0.179,0.18,0,0.024,0.173,1.67,0.024,0.976,0.118,0.55,0,0.994,0.158,0.09,0,0.036,0.157,0.38,0,0.333
03054,20100807,-102.77,33.96,0.177,0.23,0,0.167,0.16,0.29,0,0.167,0.182,0.29,0,0.167,0.171,1.6,0.018,0.982,0.118,0.56,0,0.994,0.169,0.25,0,0.167,0.162,0.53,0,0.339
03054,20100808,-102.77,33.96,0.189,0.35,0,0.31,0.168,0.43,0,0.31,0.185,0.39,0,0.31,0.171,1.57,0,1,0.117,0.56,0,0.994,0.178,0.39,0,0.31,0.166,0.66,0,0.357
03054,20100809,-102.77,33.96,0.199,0.46,0,0.452,0.175,0.55,0,0.452,0.188,0.5,0,0.452,0.17,1.52,0,1,0.117,0.56,0,0.994,0.187,0.51,0,0.452,0.17,0.79,0,0.452
03054,20100810,-102.77,33.96,0.208,0.55,0,0.595,0.18,0.65,0,0.595,0.191,0.62,0,0.595,0.169,1.52,0,1,0.117,0.55,0,0.976,0.194,0.62,0,0.595,0.173,0.9,0,0.595
03054,20100811,-102.77,33.96,0.216,0.63,0,0.738,0.185,0.74,0,0.738,0.194,0.74,0,0.738,0.169,1.55,0,1,0.116,0.54,0,0.935,0.201,0.71,0,0.738,0.176,1.01,0,0.738
03054,20100812,-102.77,33.96,0.226,0.74,0,0.881,0.19,0.83,0,0.881,0.197,0.86,0,0.881,0.17,1.62,0,1,0.116,0.56,0,0.935,0.208,0.82,0,0.881,0.18,1.12,0,0.881
03054,20100813,-102.77,33.96,0.232,0.8,0,0.994,0.193,0.87,0,1,0.198,0.94,0,1,0.17,1.7,0,1,0.116,0.58,0,0.94,0.213,0.89,0,1,0.182,1.2,0,1
03054,20100814,-102.77,33.96,0.22,0.67,0,0.863,0.185,0.73,0,0.875,0.193,0.91,0,1,0.171,1.76,0,1,0.116,0.6,0,0.94,0.202,0.75,0,0.97,0.177,1.07,0,1
03054,20100815,-102.77,33.96,0.209,0.54,0,0.72,0.177,0.6,0,0.732,0.189,0.86,0,1,0.171,1.82,0,1,0.115,0.64,0,0.94,0.193,0.62,0,0.827,0.172,0.96,0,1
03054,20100816,-102.77,33.96,0.2,0.45,0,0.589,0.171,0.48,0,0.589,0.186,0.82,0,1,0.172,1.86,0,1,0.115,0.67,0,0.94,0.185,0.52,0,0.696,0.169,0.87,0,1
03054,20100817,-102.77,33.96,0.204,0.49,0,0.589,0.17,0.47,0,0.577,0.186,0.86,0,1,0.172,1.88,0,1,0.115,0.71,0,0.958,0.187,0.55,0,0.696,0.169,0.91,0,1
03054,20100818,-102.77,33.96,0.207,0.52,0,0.589,0.17,0.47,0,0.577,0.185,0.88,0,1,0.172,1.9,0,1,0.115,0.75,0,1,0.188,0.58,0,0.696,0.17,0.94,0,1
03054,20100819,-102.77,33.96,0.207,0.53,0,0.589,0.169,0.46,0,0.56,0.185,0.88,0,1,0.172,1.9,0,1,0.115,0.76,0,1,0.188,0.59,0,0.696,0.17,0.95,0,1
03054,20100820,-102.77,33.96,0.206,0.51,0,0.524,0.167,0.44,0,0.423,0.184,0.85,0,1,0.172,1.9,0,1,0.115,0.77,0,1,0.186,0.58,0,0.696,0.169,0.94,0,1
03054,20100821,-102.77,33.96,0.203,0.5,0,0.512,0.166,0.41,0,0.405,0.183,0.82,0,1,0.172,1.9,0,1,0.115,0.76,0,1,0.184,0.56,0,0.619,0.168,0.91,0,1
03054,20100822,-102.77,33.96,0.201,0.48,0,0.512,0.164,0.39,0,0.405,0.181,0.79,0,0.911,0.172,1.9,0,1,0.114,0.74,0,1,0.183,0.54,0,0.619,0.166,0.89,0,1
03054,20100823,-102.77,33.96,0.199,0.46,0,0.5,0.162,0.37,0,0.405,0.18,0.74,0,0.768,0.171,1.87,0,1,0.114,0.7,0,0.988,0.18,0.52,0,0.607,0.165,0.86,0,0.97
03054,20100824,-102.77,33.96,0.185,0.32,0,0.357,0.157,0.27,0,0.274,0.174,0.6,0,0.625,0.171,1.83,0,1,0.113,0.66,0,0.929,0.171,0.38,0,0.464,0.16,0.7,0,0.851
03054,20100825,-102.77,33.96,0.171,0.18,0,0.214,0.15,0.16,0.036,0.131,0.17,0.47,0,0.482,0.169,1.75,0.006,0.994,0.112,0.62,0,0.839,0.16,0.24,0,0.321,0.154,0.54,0,0.708
03054,20100826,-102.77,33.96,0.159,0.07,0,0.071,0.144,0.06,0.042,0.006,0.165,0.36,0,0.339,0.168,1.65,0.006,0.994,0.112,0.57,0,0.726,0.152,0.12,0,0.179,0.15,0.4,0,0.565
03054,20100827,-102.77,33.96,0.151,0,0,0,0.14,-0.01,0.048,0,0.162,0.27,0,0.196,0.167,1.53,0.006,0.994,0.111,0.53,0,0.595,0.146,0.04,0,0.036,0.146,0.3,0,0.423
03054,20100828,-102.77,33.96,0.146,-0.05,0,0,0.136,-0.05,0.048,0,0.159,0.2,0,0.054,0.165,1.38,0.012,0.988,0.11,0.48,0,0.452,0.141,-0.01,0,0,0.143,0.22,0,0.28
03054,20100829,-102.77,33.96,0.142,-0.09,0,0,0.134,-0.09,0.048,0,0.157,0.14,0,0,0.164,1.23,0.018,0.982,0.11,0.45,0,0.315,0.138,-0.05,0,0,0.141,0.16,0,0.137
03054,20100830,-102.77,33.96,0.139,-0.1,0,0,0.132,-0.11,0.048,0,0.155,0.1,0,0,0.162,1.13,0.018,0.982,0.109,0.42,0,0.19,0.136,-0.07,0,0,0.14,0.12,0,0.024
03054,20100831,-102.77,33.96,0.138,-0.11,0,0,0.131,-0.12,0.048,0,0.154,0.07,0,0,0.161,1.05,0.018,0.982,0.109,0.4,0,0.113,0.135,-0.08,0,0,0.139,0.09,0,0
03054,20100901,-102.77,33.96,0.139,-0.09,0,0,0.131,-0.11,0.012,0,0.154,0.05,0,0,0.161,1.02,0.012,0.988,0.109,0.38,0,0.06,0.135,-0.06,0,0,0.139,0.1,0,0
03054,20100902,-102.77,33.96,0.14,-0.06,0,0,0.131,-0.09,0.006,0,0.154,0.05,0,0,0.161,0.99,0.012,0.988,0.108,0.35,0,0.03,0.136,-0.04,0,0,0.139,0.11,0,0
03054,20100903,-102.77,33.96,0.141,-0.05,0,0,0.132,-0.08,0,0,0.154,0.04,0,0,0.161,0.99,0.012,0.988,0.107,0.32,0,0.018,0.136,-0.03,0,0,0.139,0.12,0,0
03054,20100904,-102.77,33.96,0.14,-0.05,0,0,0.131,-0.07,0,0,0.154,0.04,0,0,0.161,1.01,0.006,0.994,0.107,0.29,0,0.018,0.136,-0.03,0,0,0.139,0.11,0,0
03054,20100905,-102.77,33.96,0.139,-0.05,0,0,0.131,-0.07,0,0,0.154,0.03,0,0,0.16,0.99,0.006,0.994,0.107,0.27,0,0.012,0.135,-0.03,0,0,0.138,0.1,0,0
03054,20100906,-102.77,33.96,0.138,-0.06,0,0,0.131,-0.06,0,0,0.154,0.03,0,0,0.16,0.96,0.006,0.994,0.106,0.24,0,0.006,0.135,-0.04,0,0,0.138,0.09,0,0
03054,20100907,-102.77,33.96,0.136,-0.09,0,0,0.131,-0.06,0,0,0.153,0.03,0,0,0.16,0.92,0.006,0.994,0.106,0.22,0,0,0.133,-0.06,0,0,0.137,0.07,0,0
03054,20100908,-102.77,33.96,0.133,-0.12,0,0,0.13,-0.07,0,0,0.153,0.03,0,0,0.159,0.86,0.006,0.994,0.106,0.19,0,0,0.132,-0.08,0,0,0.136,0.05,0,0
03054,20100909,-102.77,33.96,0.129,-0.16,0,0,0.129,-0.08,0,0,0.153,0.02,0,0,0.159,0.82,0.006,0.994,0.105,0.16,0,0,0.129,-0.1,0,0,0.135,0.01,0,0
03054,20100910,-102.77,33.96,0.125,-0.2,0.018,0,0.128,-0.1,0,0,0.152,0.02,0,0,0.159,0.77,0.006,0.994,0.105,0.13,0,0,0.126,-0.14,0,0,0.134,-0.03,0,0
03054,20100911,-102.77,33.96,0.122,-0.23,0.018,0,0.126,-0.12,0.018,0,0.151,0.01,0,0,0.158,0.71,0.006,0.994,0.105,0.1,0,0,0.124,-0.17,0,0,0.132,-0.06,0,0
03054,20100912,-102.77,33.96,0.121,-0.24,0.018,0,0.125,-0.13,0.024,0,0.15,0.01,0,0,0.158,0.68,0,1,0.104,0.07,0,0,0.123,-0.18,0,0,0.132,-0.08,0,0
03054,20100913,-102.77,33.96,0.12,-0.26,0.018,0,0.124,-0.14,0.024,0,0.15,0,0,0,0.158,0.64,0,1,0.104,0.04,0,0,0.122,-0.2,0,0,0.131,-0.1,0,0
03054,20100914,-102.77,33.96,0.119,-0.27,0.018,0,0.123,-0.16,0.03,0,0.149,0,0,0,0.157,0.61,0,1,0.103,0.01,0,0,0.121,-0.21,0,0,0.13,-0.12,0,0
03054,20100915,-102.77,33.96,0.125,-0.23,0.018,0,0.122,-0.17,0.03,0,0.148,-0.01,0,0,0.157,0.57,0,1,0.103,0,0,0,0.124,-0.19,0,0,0.131,-0.1,0,0
03054,20100916,-102.77,33.96,0.134,-0.16,0.018,0,0.123,-0.17,0.03,0,0.148,-0.01,0,0,0.156,0.53,0,1,0.103,0,0,0,0.128,-0.15,0,0,0.133,-0.06,0,0
03054,20100917,-102.77,33.96,0.143,-0.1,0,0,0.124,-0.16,0.03,0,0.148,-0.01,0,0,0.156,0.51,0,1,0.103,-0.01,0,0,0.134,-0.11,0,0,0.135,-0.01,0,0
03054,20100918,-102.77,33.96,0.151,-0.05,0,0,0.126,-0.14,0.012,0,0.148,-0.01,0,0,0.156,0.51,0,1,0.103,-0.01,0,0,0.138,-0.07,0,0,0.137,0.03,0,0
03054,20100919,-102.77,33.96,0.157,-0.01,0,0,0.127,-0.13,0.006,0,0.148,-0.01,0,0,0.156,0.51,0,1,0.103,-0.01,0,0,0.142,-0.04,0,0,0.138,0.06,0,0
03054,20100920,-102.77,33.96,0.162,0.01,0,0,0.128,-0.13,0.006,0,0.148,-0.01,0,0,0.156,0.51,0,0.994,0.103,-0.01,0,0,0.145,-0.03,0,0,0.139,0.09,0,0
03054,20100921,-102.77,33.96,0.165,0.02,0,0,0.129,-0.12,0,0,0.148,-0.02,0,0,0.156,0.52,0,0.994,0.103,-0.01,0,0,0.147,-0.02,0,0,0.14,0.11,0,0
03054,20100922,-102.77,33.96,0.163,-0.02,0,0,0.13,-0.12,0,0,0.148,-0.02,0.024,0,0.156,0.54,0,0.994,0.102,-0.02,0,0,0.147,-0.05,0,0,0.14,0.09,0,0
03054,20100923,-102.77,33.96,0.157,-0.09,0.036,0,0.13,-0.14,0.018,0,0.148,-0.04,0.137,0,0.156,0.56,0,0.994,0.102,-0.03,0,0,0.143,-0.1,0.018,0,0.139,0.05,0,0